Overview Statistics Trail Chart Weather Telemetry Raw packets
 

This is the latest recevied weather packets stored in our database for station/object KB5DPX. If no packets are shown the sender has not sent any weather packets the latest 10 day(s).

<< 93 94 95 96 97 98 >>
Time Temp. Humidity Pressure Rain* Wind** Luminosity Snow
1787737685 16.67° C 78% 1012.8 hPa 0 mm - 0 W/m² -
1787737394 17.22° C 77% 1012.8 hPa 0 mm - 0 W/m² -
1787737085 17.22° C 76% 1012.8 hPa 0 mm - 0 W/m² -
1787736794 17.78° C 75% 1012.9 hPa 0 mm - 0 W/m² -
1787736482 17.78° C 74% 1012.9 hPa 0 mm - 0 W/m² -
1787736191 17.78° C 74% 1012.9 hPa 0 mm - 0 W/m² -
1787735881 17.78° C 75% 1013 hPa 0 mm - 0 W/m² -
1787735587 17.22° C 76% 1013.1 hPa 0 mm - 0 W/m² -
1787734981 16.67° C 79% 1013.1 hPa 0 mm - 0 W/m² -
1787734687 16.11° C 82% 1013.1 hPa 0 mm - 0 W/m² -
1787734377 15.56° C 85% 1013.1 hPa 0 mm - 0 W/m² -
1787734086 15.56° C 86% 1013.1 hPa 0 mm - 0 W/m² -
1787733777 15.56° C 86% 1013.2 hPa 0 mm - 0 W/m² -
1787733484 15.56° C 86% 1013.2 hPa 0 mm - 0 W/m² -
1787733192 15.56° C 86% 1013.3 hPa 0 mm - 0 W/m² -
1787732881 15.56° C 86% 1013.3 hPa 0 mm - 0 W/m² -
1787732588 15.56° C 85% 1013.4 hPa 0 mm - 0 W/m² -
1787732277 16.11° C 85% 1013.5 hPa 0 mm - 0 W/m² -
1787731987 16.11° C 84% 1013.5 hPa 0 mm - 0 W/m² -
1787731677 16.11° C 84% 1013.7 hPa 0 mm - 0 W/m² -
1787731386 16.11° C 84% 1013.7 hPa 0 mm - 0 W/m² -
1787731091 16.11° C 85% 1013.9 hPa 0 mm - 0 W/m² -
1787730780 15.56° C 86% 1013.8 hPa 0 mm - 0 W/m² -
1787730487 15.56° C 86% 1013.9 hPa 0 mm - 0 W/m² -
1787730176 15.56° C 87% 1013.8 hPa 0 mm - 0 W/m² -

* Rain latest hour (hover to see other rain measurements)
** Current wind speed in m/s (hover to see current wind gust speed)